Weather History for KLAF - June, 2013

Change the Weather History Date:

Tuesday, June 25, 2013

  Actual Average Record
Temperature  
Mean Temperature 78 °F 74 °F  
Max Temperature 88 °F 85 °F 105 °F (1988)
Min Temperature 67 °F 63 °F 40 °F (1986)
Degree Days  
Heating Degree Days 0 0  
Month to date heating degree days 18 22  
Since 1 June heating degree days 18 22  
Since 1 July heating degree days 5911 5672  
Cooling Degree Days 13 9  
Month to date cooling degree days 141 170  
Year to date cooling degree days 242 247  
Since 1 June cooling degree days 141 170  
Growing Degree Days 27 (Base 50)    
Moisture  
Dew Point 69 °F    
Average Humidity 78    
Maximum Humidity 97    
Minimum Humidity 59    
Precipitation  
Precipitation 0.17 in 0.14 in 4.10 in (1978)
Month to date precipitation 2.71 3.42  
Year to date precipitation 21.33 17.44  
Sea Level Pressure  
Sea Level Pressure 29.92 in    
Wind  
Wind Speed 6 mph (SW)    
Max Wind Speed 22 mph    
Max Gust Speed 26 mph    
Visibility 9 miles    
Events Rain , Thunderstorm    
T = Trace of Precipitation, MM = Missing Value Source: NWS Daily Summary

Daily Weather History Graph

Daily Weather History Graph

Search for Another Location

Airport or City:

Trip Planner

Search our weather history database for the weather conditions in past years. The results will help you decide how hot, cold, wet, or windy it might be!

Date:

Astronomy

Jun. 25, 2013 Rise Set
Actual Time 6:18 AM EDT 9:21 PM EDT
Civil Twilight 5:45 AM EDT 9:55 PM EDT
Nautical Twilight 5:03 AM EDT 10:37 PM EDT
Astronomical Twilight 4:13 AM EDT 11:26 PM EDT
Moon 11:06 PM EDT (6/25) 8:58 AM EDT (6/25)
Length of Visible Light 16h 09m
Length of Day
15h 03m
Waning Gibbous, 93% of the Moon is Illuminated
Jun 25
Waning Gibbous
Jun 30
Last Quarter
Jul 8
New
Jul 15
First Quarter
Jul 22
Full

Hourly Weather History & Observations

Time (EDT) Temp. Heat Index Dew Point Humidity Pressure Visibility Wind Dir Wind Speed Gust Speed Precip Events Conditions
12:54 AM 68.0 °F - 66.0 °F 93% 29.99 in 10.0 mi Calm Calm - N/A   Clear
1:54 AM 69.1 °F - 68.0 °F 96% 29.98 in 8.0 mi Calm Calm - N/A   Clear
2:54 AM 70.0 °F - 68.0 °F 93% 29.97 in 6.0 mi Calm Calm - N/A   Clear
3:54 AM 70.0 °F - 66.9 °F 90% 29.96 in 10.0 mi SW 3.5 mph - N/A   Clear
4:54 AM 69.1 °F - 66.9 °F 93% 29.98 in 8.0 mi SSW 3.5 mph - N/A   Clear
5:54 AM 70.0 °F - 66.9 °F 90% 29.97 in 8.0 mi South 4.6 mph - N/A   Clear
6:54 AM 71.1 °F - 68.0 °F 90% 29.96 in 7.0 mi SSW 4.6 mph - N/A   Clear
7:54 AM 73.0 °F - 69.1 °F 87% 29.96 in 8.0 mi Calm Calm - N/A   Clear
8:54 AM 75.0 °F - 70.0 °F 84% 29.96 in 9.0 mi SW 5.8 mph - N/A   Clear
9:54 AM 77.0 °F - 71.1 °F 82% 29.97 in 10.0 mi Variable 3.5 mph - N/A   Clear
10:54 AM 80.1 °F 84.2 °F 73.0 °F 79% 29.99 in 10.0 mi WSW 6.9 mph - N/A   Clear
11:54 AM 82.9 °F 89.4 °F 73.9 °F 74% 29.98 in 10.0 mi WSW 6.9 mph - N/A   Clear
12:54 PM 84.9 °F 91.4 °F 73.0 °F 67% 29.95 in 10.0 mi WSW 11.5 mph 16.1 mph N/A   Clear
1:54 PM 87.1 °F 94.5 °F 73.0 °F 63% 29.94 in 10.0 mi WSW 10.4 mph - N/A   Clear
2:54 PM 88.0 °F 94.7 °F 72.0 °F 59% 29.92 in 10.0 mi WSW 11.5 mph - N/A   Partly Cloudy
3:54 PM 88.0 °F 95.6 °F 73.0 °F 61% 29.89 in 10.0 mi SW 10.4 mph - N/A   Partly Cloudy
4:54 PM 87.1 °F 92.8 °F 71.1 °F 59% 29.87 in 10.0 mi SSW 10.4 mph - N/A   Partly Cloudy
5:54 PM 84.9 °F 90.7 °F 72.0 °F 65% 29.85 in 10.0 mi SSW 8.1 mph - N/A   Partly Cloudy
6:54 PM 82.9 °F 87.5 °F 71.1 °F 67% 29.85 in 10.0 mi SW 4.6 mph - N/A   Clear
7:54 PM 81.0 °F 84.9 °F 71.1 °F 72% 29.86 in 10.0 mi SW 5.8 mph - N/A   Scattered Clouds
8:04 PM 80.6 °F 83.9 °F 69.8 °F 70% 29.88 in 10.0 mi West 19.6 mph 25.3 mph N/A Thunderstorm Mostly Cloudy
8:54 PM 70.0 °F - 66.0 °F 87% 29.90 in 10.0 mi WSW 9.2 mph - 0.04 in Thunderstorm Scattered Clouds
9:25 PM 69.8 °F - 66.2 °F 88% 29.90 in 8.0 mi WSW 6.9 mph - 0.04 in Rain Light Rain
9:33 PM 69.8 °F - 66.2 °F 88% 29.89 in 7.0 mi SW 5.8 mph - 0.05 in Rain , Thunderstorm Light Thunderstorms and Rain
9:54 PM 66.9 °F - 64.9 °F 93% 29.84 in 7.0 mi SSE 9.2 mph - 0.10 in Rain , Thunderstorm Thunderstorms and Rain
10:04 PM 69.8 °F - 64.4 °F 83% 29.84 in 8.0 mi South 9.2 mph - 0.02 in Rain Light Rain
10:54 PM 68.0 °F - 64.9 °F 90% 29.86 in 10.0 mi Calm Calm - 0.03 in   Clear
11:54 PM 68.0 °F - 66.0 °F 93% 29.87 in 10.0 mi SW 3.5 mph - N/A   Scattered Clouds